Tracking 21076 objects as of 10-Aug-2020
HD Live streaming from Space Station
objects crossing your sky now
Track the most recent launched group of Starlink satellites

ARIANE 1 DEB

Track ARIANE 1 DEB now!


NORAD ID: 29018
Int'l Code: 1979-104AA
Perigee: 1,008.0 km
Apogee: 38,030.7 km
Inclination: 19.1 °
Period: 691.0 minutes
Semi major axis: 25890 km
RCS: 0.2021 m2 (medium)
Launch date: December 24, 1979
Source: European Space Agency (ESA)
Launch site: FRENCH GUIANA (FRGUI)

Note: This is SATELLITE DEBRIS
aabbcc
Your satellite tracking list
Your tracking list is empty




NASA's NSSDC Master Catalog

Two Line Element Set (TLE):
1 29018U 79104AA  18240.63354834 -.00000178 +00000-0 +21159-1 0  9998
2 29018 019.1257 295.3201 7149915 218.4122 058.3175 02.08399092107307
Source of the keplerian elements: AFSPC